Location: Marcé
(47.5801°N, 0.3280°W)
Time: 14:14:41
(UTC+01:00)

Vanguard 2 Rocket - All Passes

Search period start: 09 December 2021 00:00
Search period end: 19 December 2021 00:00
Orbit: 555 x 3324 km, 32.9° (Epoch: 09 December)

Date Brightness Start Highest point End Pass type
(mag) Time Alt. Az. Time Alt. Az. Time Alt. Az.
09 Dec - 18:11:26 10° SSW 18:14:50 18° SSE 18:19:17 10° ESE visible
09 Dec - 20:22:00 10° SW 20:27:07 25° S 20:34:43 10° SE visible
09 Dec - 22:34:50 10° WSW 22:40:28 18° SSW 22:48:04 10° SSE visible
10 Dec - 17:13:50 10° S 17:15:41 12° SSE 17:17:44 10° SE daylight
10 Dec - 19:23:16 10° SW 19:27:33 22° S 19:33:36 10° SE visible
10 Dec - 21:35:16 10° SW 21:40:26 19° SSW 21:47:36 10° SSE visible
11 Dec - 18:24:46 10° SSW 18:28:11 18° S 18:32:37 10° SE visible
11 Dec - 20:36:05 10° SW 20:40:37 20° S 20:46:56 10° SE visible
11 Dec - 22:51:28 10° SW 22:53:58 11° SSW 22:56:47 10° S visible
12 Dec - 17:26:36 10° SSW 17:28:57 14° SSE 17:31:42 10° SE daylight
12 Dec - 19:37:10 10° SW 19:41:01 19° S 19:46:14 10° SE visible
12 Dec - 21:50:38 10° SW 21:53:58 13° SSW 21:57:58 10° S visible
13 Dec - 18:38:28 10° SW 18:41:37 17° S 18:45:37 10° SE visible
13 Dec - 20:50:52 10° SW 20:54:10 14° SSW 20:58:14 10° SSE visible
14 Dec - 17:39:56 10° SSW 17:42:20 14° S 17:45:07 10° SE visible
14 Dec - 19:51:36 10° SW 19:54:33 14° S 19:58:11 10° SSE visible
15 Dec - 16:41:43 10° S 16:43:07 11° S 16:44:35 10° SSE daylight
15 Dec - 18:52:35 10° SW 18:55:05 14° S 18:58:04 10° SSE visible
16 Dec - 17:53:45 10° SSW 17:55:45 13° S 17:58:01 10° SSE visible
17 Dec - 16:55:01 10° SSW 16:56:30 12° S 16:58:04 10° SSE daylight
18 Dec - 15:56:25 10° S 15:57:16 11° S 15:58:07 10° SSE daylight
